sat.trackr.live / text

‹ back to catalog

STARLINK-33929

NORAD 64188 · 2025-113U

PAYLOAD ACTIVE UNKNOWN

§ Identity

Operator
Country
US
Launch date
2025-05-28
Launch site
AFETR
Launch vehicle
Mass (kg)
RCS (m²)

Purposes: comms

External: N2YO · Heavens-Above · Gunter

§ Orbital elements

Epoch: 2026-09-20T06:25:56.464896Z

Period
93.85 min
Inclination
53.1599°
Eccentricity
0.0001399
Mean motion
15.34399355 rev/d
Perigee alt
461.7 km
Apogee alt
463.7 km
Semi-major
6,840.8 km
B*
3.0269e-4
RAAN
266.7822°
Arg perigee
88.9907°
Mean anomaly
271.1256°
Rev number
7,486

§ Raw data

STARLINK-339291 64188U 25113U   26263.26801464  .00009864  00000+0  30269-3 0  99982 64188  53.1599 266.7822 0001399  88.9907 271.1256 15.34399355 74863

JSON: /api/v1/satellites/64188 · /tle

For live sub-satellite position, see the globe view (requires WebGL).

§ Visibility from observer

Set your observer location to see the next 7 days of passes ≥ 10°. The values pass through the URL so the page stays shareable.

No JS? Fill the form by hand. The geolocation button needs JavaScript.